Tracking 18980 objects as of 20-Feb-2018
HD Live streaming from Space Station
objects crossing your sky now

CS 3A

Track CS 3A now!
CS 3A is classified as:


NORAD ID: 18877
Int'l Code: 1988-012A
Perigee: 36,347.4 km
Apogee: 36,459.9 km
Inclination: 15.5 °
Period: 1,467.4 minutes
Semi major axis: 42774 km
RCS: 6.1699 m2 (large)
Launch date: February 19, 1988
Source: Japan (JPN)
Launch site: TANEGASHIMA SPACE CENTER (TNSTA)
aabbcc
Your satellite tracking list
Your tracking list is empty




NASA's NSSDC Master Catalog

Two Line Element Set (TLE):
1 18877U 88012A   18051.40393387 -.00000045  00000-0  00000+0 0  9991
2 18877  15.4700  16.8525 0013144 272.1664 277.0141  0.98134796 97834
Source of the keplerian elements: AFSPC